This demonstration page uses our WeatherBlox Daily Observations layout. Learn more.

Left ArrowRight Arrow

39.92423, -83.80882

Hourly Observations for September 26, 2020

Temp ( °F °C ) Dew Point ( °F °C ) Humidity (%) Winds ( mph kmh ) Pressure ( in mb ) Visibility ( mi km ) Precip ( " mm )
12:56 am 00:56 Cloudy 67 19.4 64 17.8 91 91 SSW 5 7 29.98 1015 10 16 N/A
1:56 am 01:56 Mostly Cloudy 65 18.3 64 17.8 97 97 SSW 3 6 29.97 1015 10 16 N/A
2:56 am 02:56 Partly Cloudy 62 16.7 62 16.7 100 100 SW 5 7 29.98 1015 10 16 N/A
3:56 am 03:56 Clear 61 16.1 61 16.1 100 100 S 3 6 29.97 1015 10 16 N/A
4:56 am 04:56 Clear 59 15 59 15 100 100 S 3 6 29.97 1015 10 16 N/A
5:49 am 05:49 Clear with Mist and Fog 54 12 54 12 100 100 S 3 6 29.99 1016 2 3 N/A
5:56 am 05:56 Clear with Mist and Fog 55 12.8 55 12.8 100 100 S 5 7 29.98 1015 1 2 N/A
6:05 am 06:05 Clear with Mist and Fog 55 13 55 13 100 100 N N/A 29.99 1016 2 2 N/A
6:21 am 06:21 Clear with Fog 55 13 55 13 100 100 N N/A 30.00 1016 1 1 N/A
6:28 am 06:28 Mostly Cloudy with Fog 54 12 54 12 100 100 N N/A 30.00 1016 1 1 N/A
6:44 am 06:44 Mostly Cloudy with Fog 54 12 54 12 100 100 N N/A 30.01 1016 0 0 N/A
6:56 am 06:56 Cloudy with Fog 54 12.2 54 12.2 100 100 N N/A 30.00 1016 0 0 N/A
7:18 am 07:18 Cloudy with Fog 54 12 54 12 100 100 N N/A 30.02 1017 1 1 N/A
7:25 am 07:25 Cloudy with Fog 54 12 54 12 100 100 N N/A 30.02 1017 0 0 N/A
7:56 am 07:56 Cloudy with Fog 53 11.7 53 11.7 100 100 N N/A 30.02 1017 0 0 N/A
8:21 am 08:21 Cloudy with Mist and Fog 55 13 55 13 100 100 N N/A 30.03 1017 1 1 N/A
8:24 am 08:24 Cloudy with Mist and Fog 55 13 55 13 100 100 N N/A 30.03 1017 1 2 N/A
8:27 am 08:27 Cloudy with Mist and Fog 57 14 57 14 100 100 N N/A 30.03 1017 3 5 N/A
8:43 am 08:43 Partly Cloudy 61 16 61 16 100 100 N N/A 30.02 1017 8 13 N/A
8:56 am 08:56 Sunny 61 16.1 61 16.1 100 100 SSW 3 6 30.03 1017 10 16 N/A
9:56 am 09:56 Sunny 66 18.9 65 18.3 96 96 N N/A 30.03 1017 10 16 N/A
10:56 am 10:56 Sunny 71 21.7 64 17.8 79 79 S 7 11 30.02 1017 10 16 N/A
11:34 am 11:34 Mostly Cloudy 73 23 64 18 74 74 SW 10 17 29.98 1015 10 16 N/A
11:56 am 11:56 Cloudy 74 23.3 64 17.8 71 71 SW 9 15 30.00 1016 10 16 N/A
12:05 pm 12:05 Cloudy 73 23 64 18 74 74 SW 10 17 29.97 1015 10 16 N/A
12:56 pm 12:56 Cloudy 75 23.9 64 17.8 69 69 SW 12 19 29.98 1015 10 16 N/A
1:56 pm 13:56 Cloudy 75 23.9 63 17.2 66 66 SW 10 17 29.96 1015 10 16 N/A
2:56 pm 14:56 Mostly Cloudy 77 25 62 16.7 60 60 SSW 7 11 29.94 1014 10 16 N/A
3:56 pm 15:56 Mostly Cloudy 78 25.6 62 16.7 58 58 SW 9 15 29.93 1014 10 16 N/A
4:56 pm 16:56 Cloudy 75 23.9 61 16.1 62 62 SW 10 17 29.93 1013 10 16 N/A
5:56 pm 17:56 Mostly Cloudy 75 23.9 61 16.1 62 62 SW 9 15 29.92 1013 10 16 N/A
6:56 pm 18:56 Sunny 72 22.2 61 16.1 68 68 SSW 6 9 29.93 1013 10 16 N/A
7:56 pm 19:56 Clear 68 20 61 16.1 78 78 S 6 9 29.92 1013 10 16 N/A
8:56 pm 20:56 Clear 67 19.4 62 16.7 84 84 S 5 7 29.92 1013 10 16 N/A
9:56 pm 21:56 Clear 65 18.3 62 16.7 90 90 N N/A 29.92 1013 10 16 N/A
10:56 pm 22:56 Clear 63 17.2 63 17.2 100 100 S 3 6 29.92 1013 10 16 N/A
11:56 pm 23:56 Clear 63 17.2 63 17.2 100 100 S 5 7 29.91 1013 10 16 N/A

Powered by AerisWeather